TimeMDT,TemperatureF,Dew PointF,Humidity,Sea Level PressureIn,VisibilityMPH,Wind Direction,Wind SpeedMPH,Gust SpeedMPH,PrecipitationIn,Events,Conditions,WindDirDegrees,DateUTC
1:55 AM,33.8,23.0,65,30.36,10.0,Calm,Calm,-,N/A,,Clear,0,2011-10-15 07:55:00
2:15 AM,32.0,23.0,69,30.36,10.0,Calm,Calm,-,N/A,,Clear,0,2011-10-15 08:15:00
2:35 AM,32.0,19.4,60,30.37,10.0,Calm,Calm,-,N/A,,Clear,0,2011-10-15 08:35:00
3:15 AM,30.2,21.2,69,30.37,10.0,Calm,Calm,-,N/A,,Clear,0,2011-10-15 09:15:00
3:35 AM,30.2,21.2,69,30.38,10.0,Calm,Calm,-,N/A,,Clear,0,2011-10-15 09:35:00
3:55 AM,30.2,21.2,69,30.38,10.0,Calm,Calm,-,N/A,,Clear,0,2011-10-15 09:55:00
4:15 AM,30.2,19.4,64,30.38,10.0,Calm,Calm,-,N/A,,Clear,0,2011-10-15 10:15:00
5:15 AM,26.6,19.4,74,30.39,10.0,Calm,Calm,-,N/A,,Clear,0,2011-10-15 11:15:00
5:35 AM,28.4,19.4,69,30.39,10.0,Calm,Calm,-,N/A,,Clear,0,2011-10-15 11:35:00
6:35 AM,24.8,17.6,74,30.40,10.0,Calm,Calm,-,N/A,,Clear,0,2011-10-15 12:35:00
7:55 AM,24.8,17.6,74,30.41,10.0,Calm,Calm,-,N/A,,Clear,0,2011-10-15 13:55:00
8:55 AM,30.2,21.2,69,30.44,10.0,Calm,Calm,-,N/A,,Clear,0,2011-10-15 14:55:00
9:15 AM,33.8,21.2,60,30.45,10.0,Calm,Calm,-,N/A,,Clear,0,2011-10-15 15:15:00
9:35 AM,35.6,23.0,60,30.44,10.0,Calm,Calm,-,N/A,,Clear,0,2011-10-15 15:35:00
10:35 AM,44.6,24.8,46,30.42,10.0,Calm,Calm,-,N/A,,Clear,0,2011-10-15 16:35:00
10:55 AM,46.4,24.8,43,30.41,10.0,Calm,Calm,-,N/A,,Clear,0,2011-10-15 16:55:00
11:55 AM,53.6,26.6,35,30.38,10.0,NNE,3.5,-,N/A,,Clear,20,2011-10-15 17:55:00
12:16 PM,55.4,26.6,33,30.37,10.0,Calm,Calm,-,N/A,,Clear,0,2011-10-15 18:16:00
12:35 PM,57.2,26.6,31,30.36,10.0,Calm,Calm,-,N/A,,Clear,0,2011-10-15 18:35:00
12:55 PM,59.0,26.6,29,30.35,10.0,Calm,Calm,-,N/A,,Clear,0,2011-10-15 18:55:00
1:15 PM,60.8,24.8,25,30.33,10.0,Calm,Calm,-,N/A,,Clear,0,2011-10-15 19:15:00
1:35 PM,62.6,26.6,26,30.32,10.0,NNW,3.5,-,N/A,,Clear,340,2011-10-15 19:35:00
1:55 PM,64.4,26.6,24,30.30,10.0,ESE,3.5,-,N/A,,Clear,110,2011-10-15 19:55:00
2:55 PM,71.6,24.8,17,30.26,10.0,SW,11.5,18.4,N/A,,Clear,220,2011-10-15 20:55:00
3:15 PM,71.6,21.2,15,30.26,10.0,West,15.0,23.0,N/A,,Clear,280,2011-10-15 21:15:00
3:56 PM,71.6,21.2,15,30.26,10.0,WSW,15.0,24.2,N/A,,Scattered Clouds,250,2011-10-15 21:56:00
4:15 PM,71.6,19.4,14,30.26,10.0,West,17.3,21.9,N/A,,Partly Cloudy,270,2011-10-15 22:15:00
5:15 PM,69.8,19.4,15,30.25,10.0,WSW,12.7,16.1,N/A,,Clear,250,2011-10-15 23:15:00
5:35 PM,69.8,19.4,15,30.25,10.0,WSW,12.7,17.3,N/A,,Clear,250,2011-10-15 23:35:00
6:15 PM,68.0,17.6,15,30.26,10.0,West,11.5,17.3,N/A,,Clear,280,2011-10-16 00:15:00
6:35 PM,66.2,17.6,15,30.26,10.0,WNW,6.9,-,N/A,,Clear,290,2011-10-16 00:35:00
6:56 PM,64.4,17.6,16,30.26,10.0,WNW,9.2,-,N/A,,Clear,290,2011-10-16 00:56:00
8:55 PM,48.2,23.0,37,30.30,10.0,Calm,Calm,-,N/A,,Clear,0,2011-10-16 02:55:00
9:15 PM,48.2,24.8,40,30.30,10.0,NNE,4.6,-,N/A,,Clear,30,2011-10-16 03:15:00
11:15 PM,37.4,19.4,48,30.32,10.0,Calm,Calm,-,N/A,,Clear,0,2011-10-16 05:15:00
11:55 PM,35.6,21.2,56,30.32,10.0,Calm,Calm,-,N/A,,Clear,0,2011-10-16 05:55:00